[[{"header":{"parameterUnit":"m.s-1","parameterCategory":1,"la1":30.2991,"la2":30.254,"lo1":-89.0895,"lo2":-89.0444,"dy":0.0017,"dx":0.0017,"nx":28,"ny":28,"refTime":"2023-10-27T03:00:00:Z","depth":0,"parameterNumber":2,"parameterNumberName":"U-component_of_WINDS"},"data":[0,0,0,0,0,0,0,0,0,0,0,0,0,0,0,0,0,0,0,0,0,0,0,0,0,0,0,0,0,0,0,0,0,0,0,0,0,0,0,0,0,0,0,0,0,0,0,0,0,0,0,0,0,0,0,0,0,0,-2.748,-2.748,0,-2.7523,-2.7524,-2.7524,-2.745,-2.7448,-2.7445,-2.7443,-2.7489,-2.7492,-2.7496,0,0,0,0,0,0,0,0,0,0,0,0,0,-2.7335,-2.7338,-2.748,-2.748,-2.7481,-2.7523,-2.7524,-2.7524,-2.7451,-2.7448,-2.7445,-2.7442,-2.7488,-2.7492,-2.7496,0,0,0,0,0,0,0,0,0,0,0,0,0,-2.739,-2.7339,-2.748,-2.7449,-2.7447,-2.7523,-2.7524,-2.7524,-2.7452,-2.7448,-2.7444,-2.744,-2.7486,-2.7491,-2.7497,-2.7605,0,0,-2.7513,-2.7515,0,0,0,0,0,0,0,0,-2.7387,-2.7396,-2.7453,-2.7451,-2.7449,-2.7477,-2.7489,-2.7551,-2.7452,-2.745,-2.7443,-2.7439,-2.7488,-2.7493,-2.751,-2.7607,-2.7609,-2.7513,-2.7517,-2.7519,-2.752,0,0,0,0,0,0,0,-2.7384,-2.7393,-2.7497,-2.7454,-2.7452,-2.7434,-2.7438,-2.7501,-2.749,-2.745,-2.7445,-2.7451,-2.7486,-2.7505,-2.751,-2.761,-2.7513,-2.7518,-2.7521,-2.7523,-2.7799,-2.7803,0,0,0,0,0,0,-2.7383,-2.7391,-2.7495,-2.7498,-2.7408,-2.744,-2.7444,-2.7472,-2.7489,-2.7488,-2.7454,-2.7447,-2.7497,-2.7504,-2.7511,-2.7639,-2.7519,-2.7524,-2.7527,-2.7795,-2.78,-2.7804,0,0,0,0,0,0,-2.738,-2.7393,-2.7494,-2.7443,-2.7455,-2.7446,-2.7479,-2.7475,-2.7493,-2.7492,-2.7489,-2.7474,-2.7495,-2.7504,-2.7582,-2.764,-2.7526,-2.7531,-2.779,-2.7796,-2.7802,-2.7896,0,0,0,0,0,0,-2.7377,-2.7393,-2.7433,-2.7445,-2.7458,-2.7564,-2.7482,-2.7479,-2.7502,-2.7494,-2.751,-2.751,-2.7492,-2.7575,-2.7588,-2.7645,-2.7535,-2.7785,-2.7793,-2.78,-2.7888,-2.7905,-2.7919,0,0,0,0,0,-2.7372,-2.7458,-2.7435,-2.7449,-2.7508,-2.7567,-2.7574,-2.7553,-2.7507,-2.7548,-2.7548,-2.7509,-2.7632,-2.7583,-2.7597,-2.7657,-2.7781,-2.779,-2.7799,-2.7881,-2.7901,-2.7919,0,0,0,0,0,0,-2.7453,-2.7459,-2.7434,-2.7526,-2.7547,-2.7554,-2.7605,-2.7575,-2.7609,-2.76,-2.7572,-2.7576,-2.766,-2.7667,-2.7613,-2.7763,-2.7699,-2.7711,-2.7756,-2.7775,-2.7791,-2.7787,-2.754,0,0,0,0,0,-2.7482,-2.7529,-2.7532,-2.7613,-2.7625,-2.7614,-2.7638,-2.762,-2.764,-2.7648,-2.7653,-2.7675,-2.7718,-2.7747,-2.7787,-2.7889,-2.7891,-2.7937,-2.7953,-2.7966,-2.7976,-2.8031,-2.8052,-2.7835,-2.7835,-2.7834,0,0,-2.7542,-2.7551,-2.7582,-2.763,-2.7643,-2.7693,-2.7621,-2.7677,-2.7714,-2.7657,-2.7731,-2.7736,-2.7758,-2.7849,-2.7889,-2.7856,-2.8037,-2.7977,-2.7988,-2.7992,-2.8043,-2.8064,-2.8082,-2.7841,-2.784,-2.7839,0,0,-2.7677,-2.7688,-2.7757,-2.7773,-2.7794,-2.7786,-2.7803,-2.7816,-2.7817,-2.7891,-2.7849,-2.7894,-2.7969,-2.7986,-2.8005,-2.8149,-2.8115,-2.8163,-2.8244,-2.8298,-2.8315,-2.833,-2.8382,-2.84,-2.8174,-2.8174,-2.8174,0,-2.7748,-2.7821,-2.7797,-2.7856,-2.7878,-2.7829,-2.7899,-2.7916,-2.795,-2.7967,-2.793,-2.8024,-2.8035,-2.813,-2.8165,-2.8182,-2.8201,-2.816,-2.8315,-2.833,-2.8343,-2.8392,-2.8411,-2.8179,-2.8179,-2.8178,-2.8178,0,-2.7909,-2.796,-2.8014,-2.8048,-2.8076,-2.8141,-2.8126,-2.8159,-2.8138,-2.8135,-2.8212,-2.8224,-2.8266,-2.8287,-2.8267,-2.8379,-2.8358,-2.8319,-2.8253,-2.837,-2.8415,-2.8434,-2.8188,-2.8186,-2.8184,-2.8182,0,0,-2.8094,-2.8115,-2.8135,-2.815,-2.8171,-2.8211,-2.8274,-2.8314,-2.8343,-2.8368,-2.8421,-2.8486,-2.845,-2.8472,-2.8454,-2.8502,-2.8615,-2.8456,-2.8456,-2.8485,-2.8739,-2.8768,-2.879,-2.8593,-2.8596,-2.8599,-2.8737,0,-2.8228,-2.8336,-2.8316,-2.8421,-2.8469,-2.8424,-2.8479,-2.8499,-2.8498,-2.8539,-2.8537,-2.8584,-2.8533,-2.8546,-2.8591,-2.8591,-2.8665,-2.8581,-2.8642,-2.8644,-2.8637,-2.8814,-2.8845,-2.8974,-2.8755,-2.8758,-2.876,0,-2.8398,-2.843,-2.854,-2.8555,-2.8574,-2.8624,-2.866,-2.8699,-2.8721,-2.8717,-2.8742,-2.8716,-2.878,-2.8714,-2.8802,-2.8745,-2.8769,-2.8773,-2.8778,-2.8782,-2.8709,-2.8823,-2.9015,-2.9035,-2.8787,-2.8785,-2.8783,0,-2.8523,-2.8594,-2.8668,-2.8683,-2.8702,-2.8738,-2.8747,-2.8765,-2.8791,-2.8823,-2.884,-2.888,-2.8901,-2.8933,-2.8918,-2.8872,-2.9009,-2.8942,-2.9008,-2.9008,-2.9038,-2.9036,-2.9237,-2.9054,-2.9054,-2.9054,-2.9053,0,-2.8674,-2.8743,-2.8725,-2.8771,-2.8848,-2.8825,-2.8901,-2.8906,-2.8922,-2.8969,-2.8933,-2.8978,-2.8956,-2.9,-2.899,-2.9064,-2.9074,-2.9073,-2.9069,-2.9076,-2.9076,-2.9091,-2.9081,-2.9059,-2.9058,-2.9057,-2.9056,0,-2.8826,-2.8816,-2.8895,-2.8907,-2.8911,-2.8967,-2.8977,-2.9021,-2.9018,-2.9078,-2.909,-2.9085,-2.9135,-2.9124,-2.9178,-2.9171,-2.9265,-2.925,-2.9258,-2.9254,-2.932,-2.9314,-2.9537,-2.9565,-2.9365,-2.9367,-2.9368,0,-2.8923,-2.8975,-2.8992,-2.9021,-2.9033,-2.908,-2.9106,-2.9087,-2.9116,-2.9145,-2.9186,-2.9232,-2.9268,-2.935,-2.9351,-2.9393,-2.9379,-2.9454,-2.9385,-2.939,-2.938,-2.9377,-2.9382,-2.9468,-2.947,-2.9472,-2.9473,0,-2.9096,-2.9089,-2.9128,-2.9167,-2.92,-2.9229,-2.9255,-2.9281,-2.9263,-2.9298,-2.9349,-2.9377,-2.9432,-2.9479,-2.9518,-2.9528,-2.9499,-2.9495,-2.9513,-2.952,-2.9522,-2.9522,-2.9295,-2.949,-2.9488,-2.9487,-2.9486,-2.9486,-2.9223,-2.9267,-2.9287,-2.9333,-2.935,-2.9376,-2.9417,-2.942,-2.9461,-2.9505,-2.9491,-2.9548,-2.957,-2.9619,-2.9634,-2.9679,-2.9651,-2.9676,-2.9683,-2.9689,-2.9697,-2.9516,-2.9686,-2.9686,-2.9685,-2.9685,-2.9685,0,-2.9394,-2.9405,-2.9447,-2.9485,-2.9521,-2.949,-2.9517,-2.955,-2.9601,-2.9623,-2.9659,-2.9718,-2.9763,-2.9769,-2.9812,-2.9847,-2.9835,-2.9859,-2.9856,-2.9859,-2.972,-2.9701,-2.9869,-2.9869,-2.9869,-2.9869,-2.9869,-2.9869,-2.9488,-2.9562,-2.9557,-2.964,-2.965,-2.9706,-2.9724,-2.9748,-2.9766,-2.9832,-2.987,-2.9873,-2.9889,-2.9934,-2.9974,-2.9975,-2.9993,-3.0023,-3.0018,-2.9888,-2.9869,-2.9852,-2.9833,-3.0027,-3.0027,-3.0154,-3.0155,-3.0156]},{"header":{"parameterUnit":"m.s-1","parameterCategory":1,"la1":30.2991,"la2":30.254,"lo1":-89.0895,"lo2":-89.0444,"dy":0.0017,"dx":0.0017,"nx":28,"ny":28,"refTime":"2023-10-27T03:00:00:Z","depth":0,"parameterNumber":3,"parameterNumberName":"V-component_of_WINDS"},"data":[0,0,0,0,0,0,0,0,0,0,0,0,0,0,0,0,0,0,0,0,0,0,0,0,0,0,0,0,0,0,0,0,0,0,0,0,0,0,0,0,0,0,0,0,0,0,0,0,0,0,0,0,0,0,0,0,0,0,2.1878,2.1878,0,2.1913,2.1913,2.1914,2.1891,2.189,2.1889,2.1888,2.1919,2.1921,2.1923,0,0,0,0,0,0,0,0,0,0,0,0,0,2.179,2.1792,2.1878,2.1878,2.1879,2.1913,2.1913,2.1914,2.1891,2.189,2.1888,2.1887,2.1918,2.1921,2.1923,0,0,0,0,0,0,0,0,0,0,0,0,0,2.1827,2.1792,2.1878,2.1872,2.1872,2.1913,2.1913,2.1914,2.1891,2.189,2.1888,2.1887,2.1918,2.192,2.1923,2.1971,0,0,2.1931,2.1932,0,0,0,0,0,0,0,0,2.1825,2.183,2.1872,2.1872,2.1872,2.1896,2.1894,2.1933,2.1892,2.1884,2.1888,2.1886,2.1912,2.1915,2.1925,2.1972,2.1974,2.1931,2.1933,2.1934,2.1935,0,0,0,0,0,0,0,2.1822,2.1828,2.1892,2.1873,2.1873,2.1867,2.187,2.1901,2.1906,2.1884,2.1883,2.1887,2.1912,2.1923,2.1926,2.1974,2.1931,2.1934,2.1935,2.1937,2.2064,2.2066,0,0,0,0,0,0,2.1821,2.1826,2.189,2.1893,2.1844,2.1869,2.1873,2.189,2.1906,2.1907,2.1889,2.1886,2.1919,2.1923,2.1927,2.1985,2.1934,2.1937,2.1938,2.2063,2.2065,2.2067,0,0,0,0,0,0,2.1819,2.1827,2.1889,2.1859,2.1867,2.1873,2.1891,2.1891,2.1902,2.1909,2.191,2.1899,2.1918,2.1923,2.1961,2.1985,2.1938,2.194,2.2061,2.2063,2.2066,2.2101,0,0,0,0,0,0,2.1816,2.1826,2.1844,2.186,2.1868,2.1923,2.1893,2.1893,2.1907,2.1904,2.1919,2.1919,2.1917,2.1957,2.1963,2.1988,2.1943,2.2058,2.2062,2.2065,2.2097,2.2104,2.211,0,0,0,0,0,2.1813,2.1851,2.1845,2.1853,2.1892,2.1925,2.1929,2.1927,2.1909,2.1928,2.1933,2.1919,2.1982,2.1961,2.1968,2.1994,2.2057,2.2061,2.2065,2.2094,2.2103,2.211,0,0,0,0,0,0,2.1836,2.1853,2.1847,2.1891,2.1907,2.1921,2.1943,2.1935,2.1955,2.1951,2.1946,2.195,2.199,2.1996,2.1972,2.2043,2.2017,2.2022,2.2037,2.2045,2.2051,2.2048,2.1945,0,0,0,0,0,2.1847,2.1873,2.1886,2.1924,2.1933,2.1937,2.1951,2.1948,2.1964,2.197,2.1977,2.1992,2.2016,2.2031,2.2052,2.2099,2.2102,2.2121,2.2127,2.2132,2.2137,2.2163,2.2172,2.208,2.208,2.208,0,0,2.1868,2.1881,2.1897,2.1929,2.1941,2.1968,2.1943,2.1971,2.1991,2.1974,2.201,2.2017,2.2033,2.2076,2.2095,2.2082,2.2163,2.2137,2.2141,2.2143,2.2168,2.2177,2.2185,2.2083,2.2082,2.2082,0,0,2.192,2.1933,2.1966,2.198,2.2,2.2003,2.2011,2.2027,2.2032,2.2069,2.2057,2.2081,2.212,2.2133,2.2144,2.2206,2.2195,2.2214,2.2246,2.2272,2.2279,2.2286,2.2308,2.2316,2.2218,2.2218,2.2218,0,2.1943,2.1985,2.1984,2.2016,2.203,2.2019,2.2053,2.2066,2.209,2.2101,2.2087,2.2138,2.2148,2.2195,2.221,2.222,2.2229,2.2211,2.2279,2.2285,2.2291,2.2312,2.2321,2.2221,2.222,2.222,2.222,0,2.2013,2.2042,2.2067,2.2094,2.2112,2.2144,2.2149,2.2167,2.2164,2.2168,2.2208,2.222,2.2245,2.2256,2.2251,2.2302,2.2294,2.228,2.2253,2.2302,2.2322,2.233,2.2224,2.2223,2.2222,2.2222,0,0,2.2077,2.2107,2.2116,2.213,2.2152,2.2174,2.2207,2.2233,2.2249,2.2268,2.2295,2.2331,2.2318,2.2332,2.2329,2.2352,2.2401,2.2335,2.2335,2.2347,2.2459,2.2469,2.2478,2.2395,2.2396,2.2397,2.2457,0,2.2131,2.219,2.2192,2.2245,2.2273,2.2264,2.2292,2.2309,2.2316,2.2339,2.2345,2.2371,2.2353,2.2361,2.2384,2.2391,2.2424,2.2386,2.2419,2.242,2.2414,2.2489,2.2499,2.2555,2.2465,2.2466,2.2467,0,2.2201,2.2225,2.2282,2.2303,2.2314,2.234,2.2366,2.2389,2.2408,2.2411,2.2429,2.2424,2.2457,2.2431,2.2477,2.2452,2.2466,2.2471,2.2473,2.2475,2.2446,2.2492,2.2573,2.2581,2.248,2.2479,2.2478,0,2.2243,2.2289,2.2329,2.2341,2.2367,2.2385,2.2397,2.2415,2.2431,2.2454,2.2465,2.249,2.2504,2.2523,2.2525,2.2506,2.2572,2.2546,2.2575,2.2575,2.2587,2.2586,2.2671,2.2598,2.2598,2.2597,2.2597,0,2.2302,2.2337,2.2349,2.2373,2.2413,2.2416,2.2454,2.2464,2.2481,2.2507,2.2501,2.2525,2.2527,2.2552,2.2554,2.2592,2.2598,2.2601,2.2601,2.2601,2.2601,2.2609,2.2605,2.26,2.2599,2.2599,2.2598,0,2.2354,2.2364,2.2407,2.243,2.2436,2.2464,2.2483,2.2507,2.2514,2.2547,2.2555,2.2566,2.2595,2.26,2.2634,2.2635,2.2681,2.2677,2.2675,2.2674,2.2703,2.27,2.2795,2.2807,2.2727,2.2728,2.2728,0,2.2391,2.2418,2.2445,2.2463,2.2476,2.2505,2.2524,2.2528,2.2547,2.2573,2.2594,2.2624,2.2647,2.2695,2.2705,2.2731,2.2727,2.2759,2.2731,2.2731,2.2728,2.2726,2.2729,2.2764,2.2765,2.2765,2.2766,0,2.2455,2.246,2.2487,2.2517,2.254,2.2563,2.2584,2.2599,2.2607,2.2629,2.266,2.2679,2.2716,2.2745,2.2772,2.2783,2.2776,2.2775,2.2783,2.2783,2.2781,2.2782,2.2689,2.2772,2.2772,2.2771,2.2771,2.2771,2.2501,2.2525,2.2549,2.258,2.2598,2.262,2.2644,2.2656,2.2683,2.2714,2.2716,2.275,2.2771,2.2807,2.282,2.2846,2.2836,2.2847,2.285,2.2853,2.2856,2.2778,2.2851,2.2851,2.2851,2.285,2.285,0,2.2565,2.2581,2.261,2.2642,2.2667,2.2662,2.2687,2.2707,2.2739,2.276,2.2784,2.2821,2.2851,2.2865,2.2893,2.2912,2.291,2.2919,2.2917,2.292,2.2863,2.2853,2.2921,2.2921,2.2921,2.2921,2.2921,2.2921,2.2601,2.2643,2.2651,2.2702,2.2717,2.2753,2.2768,2.2788,2.2805,2.2847,2.2873,2.2883,2.2901,2.2932,2.2958,2.2962,2.2972,2.2983,2.2985,2.2931,2.2924,2.2917,2.2908,2.2986,2.2986,2.304,2.304,2.3041]}]]